Weather History for Jordan, MT

Change the Weather History Date:

Thursday, November 22, 2012

  Actual Average Record
Temperature  
Mean Temperature 24 °F 27 °F  
Max Temperature 37 °F 40 °F 68 °F (1954)
Min Temperature 11 °F 14 °F -26 °F (2003)
Degree Days  
Heating Degree Days 41 38  
Month to date heating degree days 671 726  
Since 1 July heating degree days 1488 1699  
Cooling Degree Days 0 0  
Month to date cooling degree days 0 0  
Year to date cooling degree days 728 421  
Moisture  
Dew Point 16 °F    
Average Humidity 77    
Maximum Humidity 92    
Minimum Humidity 62    
Precipitation  
Precipitation 0.00 in 0.00 in 0.10 in (1906)
Month to date precipitation 0.74 0.30  
Year to date precipitation 7.69 12.32  
Snow  
Snow 0.00 in - - ()
Month to date snowfall 0.0  
Since 1 July snowfall 0.0  
Since 1 September snowfall 0.0  
Snow Depth 0.00 in    
Sea Level Pressure  
Sea Level Pressure 30.37 in    
Wind  
Wind Speed 11 mph (NW)    
Max Wind Speed 28 mph    
Max Gust Speed 32 mph    
T = Trace of Precipitation, MM = Missing Value Source: NWS Daily Summary

Daily Weather History Graph

Daily Weather History Graph

Search for Another Location

Airport:

Trip Planner

Search our weather history database for the weather conditions in past years. The results will help you decide how hot, cold, wet, or windy it might be!

Date:

Astronomy

Nov. 22, 2012 Rise Set
Actual Time 7:22 AM MST 4:24 PM MST
Civil Twilight 6:48 AM MST 4:58 PM MST
Nautical Twilight 6:10 AM MST 5:36 PM MST
Astronomical Twilight 5:34 AM MST 6:13 PM MST
Moon 1:30 PM MST (11/22) 1:25 AM MST (11/22)
Length of Visible Light 10h 10m
Length of Day
9h 01m
Waxing Gibbous, 72% of the Moon is Illuminated
Nov 22
Waxing Gibbous
Nov 28
Full
Dec 6
Last Quarter
Dec 13
New
Dec 19
First Quarter

Hourly Weather History & Observations

Time (MST) Temp. Windchill Dew Point Humidity Pressure Visibility Wind Dir Wind Speed Gust Speed Precip Events Conditions
12:48 AM 32.0 °F 26.4 °F 28.9 °F 88% 29.93 in - NNW 5.8 mph - N/A   Unknown
1:48 AM 30.9 °F 24.3 °F 28.0 °F 89% 29.94 in - NW 6.9 mph - N/A   Unknown
2:48 AM 27.0 °F - 25.0 °F 92% 29.99 in - Calm Calm - N/A   Unknown
3:48 AM 27.0 °F - 24.1 °F 89% 30.01 in - Calm Calm - N/A   Unknown
4:48 AM 30.0 °F 24.1 °F 28.0 °F 92% 30.05 in - NNW 5.8 mph - N/A   Unknown
5:48 AM 30.0 °F 19.5 °F 27.0 °F 88% 30.10 in - NW 13.8 mph - N/A   Unknown
6:48 AM 27.0 °F 15.2 °F 23.0 °F 85% 30.14 in - WNW 15.0 mph - N/A   Unknown
7:48 AM 26.1 °F 13.6 °F 21.0 °F 81% 30.19 in - NW 16.1 mph - N/A   Unknown
8:48 AM 24.1 °F 9.8 °F 19.9 °F 84% 30.26 in - NW 19.6 mph - N/A   Unknown
9:48 AM 21.0 °F 4.6 °F 16.0 °F 81% 30.32 in - NW 23.0 mph 28.8 mph N/A   Unknown
10:48 AM 18.0 °F -0.2 °F 10.9 °F 74% 30.39 in - NNW 25.3 mph 31.1 mph N/A   Unknown
11:48 AM 19.0 °F 3.2 °F 10.0 °F 68% 30.42 in - NW 19.6 mph 29.9 mph N/A   Unknown
12:48 PM 19.0 °F 2.0 °F 10.0 °F 68% 30.46 in - NW 23.0 mph 28.8 mph N/A   Unknown
1:48 PM 21.0 °F 5.4 °F 10.0 °F 63% 30.48 in - NW 20.7 mph 29.9 mph N/A   Unknown
2:48 PM 19.9 °F 4.8 °F 10.0 °F 65% 30.52 in - NW 18.4 mph 25.3 mph N/A   Unknown
3:48 PM 19.9 °F 5.7 °F 10.9 °F 68% 30.56 in - NNW 16.1 mph - N/A   Unknown
4:48 PM 17.1 °F 6.6 °F 10.0 °F 74% 30.59 in - NW 8.1 mph - N/A   Unknown
5:48 PM 15.1 °F 7.7 °F 10.0 °F 80% 30.61 in - West 4.6 mph - N/A   Unknown
6:48 PM 14.0 °F 6.5 °F 9.0 °F 80% 30.63 in - WSW 4.6 mph - N/A   Unknown
7:48 PM 12.9 °F 6.9 °F 9.0 °F 84% 30.64 in - NNW 3.5 mph - N/A   Unknown
8:48 PM 12.9 °F 6.9 °F 10.0 °F 88% 30.66 in - SW 3.5 mph - N/A   Unknown
9:48 PM 12.9 °F - 9.0 °F 84% 30.66 in - Calm Calm - N/A   Unknown
10:48 PM 12.0 °F 5.9 °F 9.0 °F 88% 30.66 in - West 3.5 mph - N/A   Unknown
11:48 PM 10.9 °F - 7.0 °F 84% 30.66 in - Calm Calm - N/A   Unknown